Change the Weather History Date:

Saturday, February 18, 2012

  Actual Average (KFLL) Record (KFLL)
Temperature  
Mean Temperature 72 °F 71 °F  
Max Temperature 81 °F 78 °F 87 °F (1959)
Min Temperature 64 °F 64 °F 38 °F (1996)
Degree Days  
Heating Degree Days 0 1  
Month to date heating degree days 18  
Since 1 July heating degree days 98  
Cooling Degree Days 8 7  
Month to date cooling degree days 117  
Year to date cooling degree days 287  
Growing Degree Days 22 (Base 50)    
Moisture  
Dew Point 64 °F    
Average Humidity 75    
Maximum Humidity 97    
Minimum Humidity 54    
Precipitation  
Precipitation 0.00 in 0.10 in 2.15 in (1920)
Month to date precipitation 2.04  
Year to date precipitation 5.67  
Snow  
Snow 0.00 in - - ()
Month to date snowfall  
Since 1 July snowfall  
Snow Depth -    
Sea Level Pressure  
Sea Level Pressure 30.00 in    
Wind  
Wind Speed 3 mph (SSE)    
Max Wind Speed 13 mph    
Max Gust Speed -    
Visibility 10 miles    
Events      
T = Trace of Precipitation, MM = Missing Value Source: NWS Daily Summary

Daily Weather History Graph

Daily Weather History Graph

Search for Another Location

Airport or City:

Trip Planner

Search our weather history database for the weather conditions in past years. The results will help you decide how hot, cold, wet, or windy it might be!

Date:

Astronomy

Feb. 18, 2012 Rise Set
Actual Time 6:54 AM EST 6:15 PM EST
Civil Twilight 6:30 AM EST 6:39 PM EST
Nautical Twilight 6:03 AM EST 7:06 PM EST
Astronomical Twilight 5:37 AM EST 7:33 PM EST
Moon 4:18 AM EST (2/18) 3:23 PM EST (2/18)
Length of Visible Light 12h 08m
Length of Day
11h 21m
Waning Crescent, 11% of the Moon is Illuminated
Feb 18
Waning Crescent
Feb 21
New
Feb 29
First Quarter
Mar 8
Full
Mar 14
Last Quarter

Hourly Weather History & Observations

Time (EST) Temp. Heat Index Dew Point Humidity Pressure Visibility Wind Dir Wind Speed Gust Speed Precip Events Conditions
12:53 AM 68.0 °F - 64.0 °F 87% 30.04 in 10.0 mi Calm Calm - N/A   Clear
1:53 AM 68.0 °F - 64.9 °F 90% 30.04 in 10.0 mi Calm Calm - N/A   Clear
2:53 AM 66.9 °F - 64.0 °F 90% 30.02 in 10.0 mi Calm Calm - N/A   Clear
3:53 AM 64.9 °F - 64.0 °F 97% 30.01 in 8.0 mi Calm Calm - N/A   Clear
4:53 AM 64.9 °F - 64.0 °F 97% 30.01 in 9.0 mi Calm Calm - N/A   Clear
5:53 AM 64.9 °F - 63.0 °F 93% 30.01 in 9.0 mi Calm Calm - N/A   Clear
6:53 AM 64.0 °F - 62.1 °F 93% 30.03 in 8.0 mi Calm Calm - N/A   Clear
7:53 AM 66.9 °F - 66.0 °F 97% 30.05 in 7.0 mi Calm Calm - N/A   Clear
8:53 AM 73.9 °F - 66.0 °F 76% 30.05 in 10.0 mi Calm Calm - N/A   Clear
9:53 AM 75.9 °F - 64.9 °F 69% 30.06 in 10.0 mi Variable 3.5 mph - N/A   Clear
10:53 AM 79.0 °F - 63.0 °F 58% 30.05 in 10.0 mi Variable 4.6 mph - N/A   Scattered Clouds
11:53 AM 80.1 °F 81.5 °F 63.0 °F 56% 30.03 in 10.0 mi SE 6.9 mph - N/A   Partly Cloudy
12:53 PM 81.0 °F 82.2 °F 63.0 °F 54% 29.99 in 10.0 mi South 9.2 mph - N/A   Scattered Clouds
1:53 PM 81.0 °F 82.5 °F 64.0 °F 56% 29.96 in 10.0 mi SSE 9.2 mph - N/A   Partly Cloudy
2:53 PM 81.0 °F 82.2 °F 63.0 °F 54% 29.94 in 10.0 mi SE 12.7 mph - N/A   Clear
3:53 PM 80.1 °F 81.2 °F 62.1 °F 54% 29.94 in 10.0 mi SE 11.5 mph - N/A   Clear
4:53 PM 77.0 °F - 62.1 °F 60% 29.95 in 10.0 mi SE 9.2 mph - N/A   Clear
5:53 PM 75.9 °F - 62.1 °F 62% 29.95 in 10.0 mi SE 9.2 mph - N/A   Clear
6:53 PM 73.9 °F - 63.0 °F 68% 29.96 in 10.0 mi SSE 8.1 mph - N/A   Clear
8:53 PM 73.0 °F - 64.9 °F 76% 29.98 in 10.0 mi SSE 4.6 mph - N/A   Clear
9:53 PM 72.0 °F - 66.0 °F 81% 29.98 in 10.0 mi SSE 6.9 mph - N/A   Clear
10:53 PM 71.1 °F - 66.0 °F 84% 29.98 in 10.0 mi SSE 6.9 mph - N/A   Clear
11:53 PM 71.1 °F - 66.0 °F 84% 29.97 in 10.0 mi SSE 5.8 mph - N/A   Clear